TimeCDT,TemperatureF,Dew PointF,Humidity,Sea Level PressureIn,VisibilityMPH,Wind Direction,Wind SpeedMPH,Gust SpeedMPH,PrecipitationIn,Events,Conditions,WindDirDegrees,DateUTC
12:53 AM,62.1,41.0,46,29.82,10.0,WNW,12.7,-,N/A,,Clear,290,2012-10-14 05:53:00
1:53 AM,57.9,42.1,56,29.84,10.0,West,6.9,-,N/A,,Clear,260,2012-10-14 06:53:00
2:53 AM,59.0,43.0,55,29.86,10.0,West,13.8,18.4,N/A,,Clear,260,2012-10-14 07:53:00
3:53 AM,57.9,44.1,60,29.88,10.0,WNW,11.5,19.6,N/A,,Clear,300,2012-10-14 08:53:00
4:53 AM,62.1,44.1,52,29.88,10.0,NW,18.4,27.6,N/A,,Clear,320,2012-10-14 09:53:00
5:53 AM,61.0,43.0,52,29.91,10.0,NNW,20.7,32.2,N/A,,Clear,330,2012-10-14 10:53:00
6:53 AM,61.0,42.1,50,29.96,10.0,NNW,16.1,25.3,N/A,,Clear,330,2012-10-14 11:53:00
7:53 AM,60.1,41.0,49,30.00,10.0,NNW,17.3,25.3,N/A,,Clear,330,2012-10-14 12:53:00
8:53 AM,63.0,41.0,45,30.04,10.0,NNW,19.6,-,N/A,,Clear,340,2012-10-14 13:53:00
9:53 AM,66.9,41.0,39,30.10,10.0,NNW,18.4,24.2,N/A,,Clear,340,2012-10-14 14:53:00
10:53 AM,72.0,39.0,30,30.12,10.0,North,21.9,27.6,N/A,,Clear,360,2012-10-14 15:53:00
11:53 AM,75.9,37.0,24,30.12,10.0,North,21.9,32.2,N/A,,Clear,350,2012-10-14 16:53:00
12:53 PM,78.1,36.0,22,30.12,10.0,North,21.9,31.1,N/A,,Clear,10,2012-10-14 17:53:00
1:53 PM,79.0,36.0,21,30.10,10.0,North,18.4,27.6,N/A,,Clear,360,2012-10-14 18:53:00
3:53 PM,80.1,36.0,20,30.07,10.0,North,17.3,25.3,N/A,,Clear,350,2012-10-14 20:53:00
4:53 PM,79.0,36.0,21,30.06,10.0,NNW,16.1,21.9,N/A,,Clear,340,2012-10-14 21:53:00
5:53 PM,78.1,36.0,22,30.07,10.0,North,18.4,-,N/A,,Clear,10,2012-10-14 22:53:00
6:53 PM,71.1,37.0,29,30.08,10.0,North,11.5,-,N/A,,Clear,10,2012-10-14 23:53:00
7:53 PM,63.0,37.9,40,30.10,10.0,NNE,10.4,-,N/A,,Clear,20,2012-10-15 00:53:00
8:53 PM,61.0,39.0,44,30.11,10.0,North,5.8,-,N/A,,Clear,10,2012-10-15 01:53:00
9:53 PM,59.0,41.0,51,30.12,10.0,Calm,Calm,-,N/A,,Clear,0,2012-10-15 02:53:00
10:53 PM,55.9,42.1,60,30.13,10.0,Calm,Calm,-,N/A,,Clear,0,2012-10-15 03:53:00
11:53 PM,54.0,42.1,64,30.13,10.0,ESE,8.1,-,N/A,,Clear,120,2012-10-15 04:53:00